Wind_Speed
21 22 22 21 21 21 21 21 21 22 23 24 25 26 28 30 32 33 34 36 37 38 38 39 40 41 42 44 45 46 47 47 48 49 50 50 50 50 51 51 50 50 50
22 22 23 22 22 22 22 23 23 24 25 27 28 30 32 33 34 35 36 36 37 38 39 40 41 42 43 44 44 45 45 46 47 47 47 48 48 48 48 48 47 47 46
23 23 23 23 24 24 25 25 26 27 29 30 32 33 33 34 35 35 36 36 37 38 39 40 40 41 42 42 43 43 44 44 44 44 44 44 44 44 43 43 43 43 42
24 24 25 25 25 26 27 27 28 29 30 32 33 33 33 34 34 35 35 36 36 37 38 39 39 40 40 40 40 40 40 40 40 40 40 40 40 39 39 38 38 37 36
24 25 25 25 26 27 28 29 29 30 30 30 31 32 32 33 34 34 34 35 36 36 37 37 37 37 37 37 37 37 37 36 36 36 35 35 34 33 33 32 31 31 30
24 25 25 26 27 27 28 28 29 29 30 30 31 31 31 31 32 33 33 34 34 35 35 34 34 34 34 33 33 33 32 31 30 30 29 29 28 27 27 26 26 25 25
24 24 25 25 26 27 27 27 28 28 28 28 28 29 29 30 31 31 31 32 32 32 32 31 30 30 29 28 28 27 27 26 26 26 25 25 24 24 23 23 23 22 22
22 22 23 23 24 24 25 25 25 26 27 27 28 29 29 30 30 30 30 30 29 28 28 27 26 26 24 24 23 23 23 22 22 21 21 21 20 20 20 20 20 20 20
21 21 21 22 22 23 23 24 24 25 25 26 27 27 27 28 27 27 26 25 25 24 23 23 22 21 21 21 20 20 20 20 19 19 19 19 18 18 18 18 19 19 19
20 20 21 21 21 22 22 22 23 23 23 23 24 24 23 22 22 21 21 20 20 20 20 19 19 19 19 19 18 19 19 18 18 18 17 18 17 17 17 18 18 18 17
19 19 20 20 20 20 21 21 21 21 21 21 20 19 18 18 18 18 18 17 17 17 17 17 17 17 17 17 17 17 17 17 16 16 16 17 17 16 16 17 17 16 15
18 18 18 18 19 19 19 19 19 18 18 17 17 17 16 16 16 16 16 16 16 16 16 15 15 15 16 16 16 16 16 16 16 16 16 16 16 16 16 16 15 15 14
16 16 17 17 17 17 17 17 17 16 16 15 15 15 15 15 15 14 14 14 15 15 14 14 14 15 15 15 15 16 16 16 16 16 16 16 15 15 15 15 14 13 12
15 15 15 15 15 15 16 16 15 14 14 14 13 13 13 13 12 12 12 13 13 13 12 13 14 14 14 15 15 15 15 15 16 16 15 15 15 14 13 13 13 12 11
15 15 15 14 14 14 14 13 13 13 12 12 11 11 11 10 10 10 10 11 11 11 11 12 13 13 14 15 15 15 15 15 15 14 14 14 13 13 12 12 11 11 11
13 13 13 13 12 12 11 11 11 10 10 10 9 9 9 9 9 9 9 10 10 10 11 12 12 13 14 15 15 15 14 14 14 13 13 12 12 11 11 10 10 10 9
11 11 10 10 10 9 9 8 8 8 8 7 7 7 7 7 7 8 8 9 9 10 11 12 13 13 14 14 14 14 13 13 13 12 12 11 11 10 9 9 9 8 9
8 7 6 6 6 6 5 5 5 5 5 5 5 5 5 6 6 7 8 9 9 10 11 12 12 13 13 13 13 13 13 12 11 11 11 10 9 9 8 8 8 8 8
5 4 4 4 4 4 4 3 3 4 4 4 4 4 5 5 6 7 8 8 9 10 11 12 12 13 13 13 12 12 12 11 11 10 10 9 9 8 8 7 7 7 7
5 4 4 4 4 4 4 4 4 4 4 4 4 5 5 5 6 7 8 9 9 10 11 12 12 13 13 13 12 12 11 11 10 10 9 9 8 8 7 7 7 7 7
8 7 6 6 6 6 5 5 5 5 5 6 6 6 6 7 8 8 9 9 10 11 12 12 13 13 13 13 13 12 12 11 10 10 9 9 9 8 8 8 8 8 9
10 10 9 9 8 8 8 7 7 7 7 7 7 8 8 9 9 10 10 11 11 12 13 13 14 14 14 14 14 13 13 12 11 11 11 10 10 10 10 10 10 11 11
13 12 12 11 10 9 9 9 9 9 9 9 9 10 10 10 11 11 11 12 12 13 13 14 14 14 15 15 15 15 14 14 13 13 12 12 12 12 12 12 12 12 12
15 14 13 12 11 11 10 10 10 10 10 10 10 11 11 11 11 12 12 12 13 13 13 14 14 15 15 16 16 16 15 15 14 14 14 14 13 13 13 13 13 13 13
16 15 14 14 13 12 11 11 11 11 11 11 11 11 12 12 12 12 13 13 13 13 13 14 14 15 15 16 16 16 16 16 15 15 15 15 14 14 14 14 13 13 14
17 16 15 15 14 13 12 12 12 12 12 12 12 12 12 12 12 12 13 13 13 14 14 14 14 15 15 15 16 16 16 16 16 15 15 15 15 15 15 14 14 14 13
Wind_Direction
266 267 270 270 273 272 273 273 272 271 272 274 276 278 280 282 283 284 284 284 285 285 286 286 286 286 286 287 287 286 286 287 286 286 286 286 286 286 286 286 286 287 287
264 265 267 268 270 271 272 272 272 273 276 278 280 281 282 283 283 284 284 285 286 287 287 287 287 287 287 287 287 287 287 287 288 288 288 288 288 288 288 288 289 290 291
263 264 265 268 269 271 273 274 274 276 278 279 281 282 283 284 284 285 286 287 287 287 287 288 288 288 288 288 288 288 289 290 290 290 291 291 291 292 292 293 293 294 293
263 265 268 269 270 272 274 276 276 277 279 280 282 283 284 285 285 286 287 287 288 288 288 289 289 290 290 290 290 290 291 291 292 292 293 294 295 296 296 297 298 298 298
264 266 270 272 273 274 275 276 278 280 280 281 282 284 285 286 286 287 288 289 289 290 290 290 291 292 292 292 292 292 293 293 294 296 298 299 299 300 301 302 303 303 304
268 270 271 272 274 275 276 278 280 280 281 283 284 285 286 287 288 289 290 290 291 291 291 292 293 294 295 295 295 295 296 297 299 301 302 303 305 306 307 308 309 310 311
270 270 271 273 275 277 279 280 281 283 284 285 285 286 288 289 290 292 293 293 293 293 294 295 296 297 297 298 299 299 300 301 303 305 306 308 309 311 312 313 314 315 315
271 273 275 277 279 280 281 282 283 284 285 285 286 288 289 291 292 294 295 295 294 295 296 297 297 298 299 300 302 304 305 307 309 310 311 312 314 315 317 318 319 320 320
275 276 277 278 280 282 283 284 285 285 286 288 288 289 291 292 293 294 295 296 296 297 297 298 299 300 301 303 305 308 309 310 311 312 313 315 317 319 320 321 321 322 322
276 277 279 280 282 284 285 286 287 288 289 291 291 292 293 294 295 296 298 300 300 299 300 300 300 302 304 306 308 310 313 314 315 317 318 320 321 322 324 324 324 324 324
277 278 280 281 283 284 285 287 289 291 293 293 293 294 295 296 297 297 298 301 302 303 303 303 304 306 307 309 311 314 317 318 319 320 322 323 324 325 326 327 328 328 328
278 280 281 282 283 285 286 288 289 292 294 295 296 296 296 295 295 297 298 300 302 303 304 306 309 311 311 313 315 317 319 321 322 322 323 324 325 325 326 328 329 330 330
284 286 287 287 286 285 286 288 290 293 294 296 298 297 297 296 297 298 300 302 302 303 305 308 312 314 315 316 319 321 323 323 324 324 325 325 326 326 326 328 331 332 334
286 288 289 288 288 287 287 288 289 291 293 297 299 300 301 301 300 301 303 306 307 308 310 312 315 316 318 320 323 324 324 325 325 326 326 327 327 328 329 332 336 338 338
288 289 289 290 291 289 288 288 289 291 293 297 299 300 304 307 308 309 310 311 314 316 318 320 321 321 323 325 326 327 328 328 329 329 329 330 331 332 334 336 339 343 344
290 289 289 289 292 292 291 291 292 292 293 296 298 303 309 313 315 315 318 321 323 324 324 325 326 327 327 328 329 330 331 331 331 331 331 332 334 335 337 340 343 347 350
299 295 293 293 296 298 297 297 297 297 298 300 304 309 316 319 321 325 329 331 331 331 332 332 333 333 333 333 333 334 334 334 335 336 336 336 338 340 341 344 348 353 357
314 312 310 308 308 310 312 314 315 316 318 318 320 322 325 329 334 338 340 340 341 341 341 342 342 341 340 341 341 342 342 341 342 342 343 343 345 348 350 353 356 1 7
337 335 335 337 339 342 346 350 347 344 344 343 342 341 343 345 349 352 352 352 353 353 354 353 352 351 351 351 351 351 351 350 350 351 352 353 356 359 3 6 10 16 22
22 22 25 27 28 26 28 26 20 16 15 13 11 9 7 7 8 7 6 6 6 5 5 4 4 4 4 3 2 2 1 1 1 3 6 8 11 15 19 23 28 33 39
48 51 54 54 53 50 49 48 47 45 43 40 36 34 32 29 27 25 22 20 17 17 17 17 16 16 16 15 13 12 12 14 16 20 24 26 29 32 37 43 49 52 54
56 59 61 63 63 61 59 59 56 53 51 49 47 45 43 41 40 36 32 29 27 26 26 26 25 25 24 24 23 24 25 27 31 35 38 41 44 48 52 57 61 62 62
60 63 65 65 64 62 63 64 62 60 58 56 53 49 48 47 45 40 37 34 33 32 31 31 30 30 30 31 32 34 36 39 42 45 48 50 53 55 59 63 65 66 67
59 62 63 64 64 64 65 65 64 61 58 55 51 49 49 47 44 42 39 38 37 37 36 36 36 36 36 37 38 40 42 44 47 50 52 55 56 58 61 65 65 65 66
60 61 62 63 63 63 64 63 61 59 56 53 52 51 50 48 46 44 43 42 41 40 40 40 40 41 41 42 42 43 44 47 49 52 55 58 59 61 63 64 64 65 65
60 61 61 61 61 61 61 61 59 58 56 55 54 52 50 49 47 46 44 43 42 42 42 42 42 43 43 44 44 45 46 48 51 53 56 58 60 61 62 62 62 62 61
Height
5769 5770 5771 5772 5773 5774 5774 5775 5775 5776 5777 5777 5777 5776 5776 5776 5775 5774 5772 5770 5768 5766 5763 5761 5758 5756 5752 5749 5746 5742 5738 5735 5731 5727 5723 5719 5714 5710 5706 5701 5697 5693 5688
5763 5764 5765 5766 5766 5767 5768 5768 5769 5769 5769 5769 5769 5768 5767 5766 5765 5764 5762 5759 5757 5755 5752 5750 5747 5744 5741 5737 5733 5730 5726 5722 5718 5714 5710 5705 5701 5696 5692 5688 5683 5679 5675
5756 5757 5758 5759 5760 5760 5761 5761 5761 5761 5761 5760 5760 5759 5758 5756 5754 5753 5751 5748 5746 5744 5741 5738 5735 5732 5729 5725 5721 5718 5714 5710 5706 5702 5697 5693 5688 5684 5680 5675 5671 5667 5663
5750 5751 5751 5752 5752 5753 5753 5753 5753 5753 5752 5751 5750 5749 5747 5746 5744 5742 5740 5738 5736 5733 5730 5727 5724 5721 5717 5713 5710 5706 5702 5698 5694 5690 5686 5682 5678 5673 5669 5665 5660 5656 5653
5743 5743 5744 5744 5744 5745 5745 5745 5744 5743 5742 5742 5741 5739 5738 5736 5734 5732 5730 5728 5725 5722 5720 5717 5713 5710 5706 5703 5699 5695 5691 5688 5684 5680 5676 5672 5668 5664 5660 5656 5652 5648 5644
5736 5736 5737 5737 5737 5736 5736 5736 5735 5734 5734 5733 5731 5730 5728 5727 5725 5723 5720 5718 5715 5712 5709 5706 5703 5700 5696 5693 5689 5686 5682 5679 5675 5671 5667 5664 5660 5656 5652 5649 5645 5641 5638
5729 5729 5729 5729 5729 5728 5728 5727 5726 5726 5725 5723 5722 5721 5719 5717 5715 5713 5711 5708 5706 5703 5700 5697 5694 5691 5688 5685 5681 5678 5675 5671 5668 5664 5661 5657 5654 5650 5647 5643 5640 5636 5633
5722 5722 5722 5722 5721 5721 5720 5719 5718 5718 5717 5716 5714 5712 5711 5709 5706 5704 5702 5699 5697 5694 5692 5689 5687 5684 5681 5678 5675 5672 5669 5665 5662 5659 5655 5652 5649 5645 5642 5639 5635 5632 5629
5716 5716 5715 5715 5714 5714 5713 5712 5712 5711 5709 5708 5707 5705 5703 5701 5699 5697 5694 5692 5690 5687 5685 5683 5680 5678 5676 5673 5670 5667 5663 5660 5657 5654 5650 5647 5644 5641 5638 5635 5632 5628 5625
5710 5710 5709 5709 5708 5707 5707 5706 5705 5704 5702 5701 5699 5698 5696 5694 5692 5690 5688 5686 5684 5682 5680 5678 5675 5673 5670 5668 5665 5662 5659 5656 5652 5649 5646 5643 5640 5637 5634 5631 5628 5625 5622
5704 5704 5704 5703 5702 5702 5701 5700 5699 5697 5696 5694 5693 5691 5690 5688 5687 5685 5684 5682 5680 5677 5675 5673 5671 5668 5666 5663 5660 5658 5655 5652 5649 5646 5643 5640 5637 5634 5631 5628 5625 5622 5619
5699 5698 5698 5697 5697 5696 5695 5694 5693 5692 5691 5689 5687 5686 5685 5683 5682 5680 5679 5677 5675 5673 5671 5669 5667 5664 5662 5659 5656 5654 5651 5648 5645 5642 5640 5637 5634 5631 5628 5625 5622 5619 5616
5694 5693 5692 5692 5691 5690 5689 5689 5688 5687 5685 5684 5683 5682 5680 5679 5677 5676 5675 5673 5671 5669 5667 5665 5663 5661 5658 5656 5653 5650 5647 5644 5642 5639 5636 5634 5631 5628 5625 5622 5619 5616 5614
5689 5688 5688 5687 5686 5685 5684 5684 5683 5682 5681 5680 5679 5678 5676 5675 5673 5672 5671 5669 5668 5666 5664 5662 5660 5658 5655 5653 5650 5647 5644 5641 5638 5636 5633 5631 5628 5625 5622 5620 5617 5614 5612
5684 5683 5683 5682 5681 5680 5680 5679 5678 5677 5677 5676 5675 5674 5673 5671 5670 5669 5667 5666 5664 5663 5661 5659 5657 5655 5652 5649 5647 5644 5641 5638 5635 5633 5630 5628 5625 5623 5620 5618 5615 5613 5610
5679 5679 5678 5677 5677 5676 5675 5675 5674 5674 5673 5672 5672 5671 5670 5669 5667 5666 5665 5664 5662 5661 5659 5657 5654 5652 5649 5647 5644 5641 5638 5635 5633 5630 5628 5625 5623 5621 5618 5616 5614 5612 5609
5676 5675 5674 5674 5673 5672 5672 5672 5671 5671 5670 5670 5669 5668 5668 5667 5666 5665 5663 5662 5660 5659 5657 5655 5652 5649 5647 5644 5641 5638 5636 5633 5630 5628 5626 5623 5621 5619 5617 5615 5613 5611 5608
5673 5672 5672 5671 5671 5670 5670 5670 5669 5669 5668 5668 5667 5667 5666 5665 5664 5663 5662 5661 5659 5657 5655 5653 5650 5648 5645 5642 5639 5636 5634 5631 5629 5626 5624 5622 5620 5618 5616 5614 5612 5610 5608
5671 5671 5670 5670 5670 5669 5669 5669 5668 5668 5668 5667 5667 5666 5665 5664 5664 5663 5661 5660 5658 5656 5654 5652 5649 5646 5643 5640 5638 5635 5632 5630 5627 5625 5623 5621 5619 5617 5615 5613 5612 5610 5608
5671 5670 5670 5669 5669 5669 5669 5669 5668 5668 5667 5667 5666 5666 5665 5664 5663 5662 5661 5660 5658 5656 5654 5651 5648 5646 5643 5640 5637 5634 5632 5629 5627 5624 5622 5620 5618 5616 5615 5613 5612 5610 5609
5672 5671 5670 5670 5670 5670 5669 5669 5669 5669 5668 5668 5667 5666 5666 5665 5664 5662 5661 5660 5658 5656 5654 5651 5649 5646 5643 5640 5637 5634 5632 5629 5627 5625 5622 5621 5619 5617 5615 5614 5612 5611 5610
5674 5673 5672 5672 5671 5671 5671 5671 5670 5670 5670 5669 5668 5668 5667 5666 5665 5663 5662 5660 5659 5657 5654 5652 5650 5647 5644 5641 5638 5635 5633 5630 5628 5626 5624 5622 5620 5618 5617 5615 5614 5613 5612
5677 5676 5675 5674 5674 5674 5673 5673 5672 5672 5671 5671 5670 5669 5668 5667 5666 5665 5663 5662 5660 5658 5656 5653 5651 5648 5646 5643 5640 5637 5635 5632 5630 5628 5626 5624 5622 5621 5619 5618 5617 5616 5615
5681 5679 5678 5678 5677 5677 5676 5676 5675 5674 5674 5673 5672 5671 5670 5669 5668 5667 5665 5663 5662 5660 5658 5655 5653 5651 5648 5645 5643 5640 5637 5635 5632 5630 5628 5627 5625 5624 5622 5621 5620 5619 5618
5685 5683 5682 5681 5681 5680 5679 5678 5678 5677 5676 5675 5674 5673 5672 5671 5670 5669 5667 5665 5664 5662 5660 5658 5655 5653 5651 5648 5646 5643 5640 5638 5636 5634 5632 5630 5628 5627 5626 5624 5623 5622 5621
5689 5688 5686 5685 5684 5683 5682 5682 5681 5680 5679 5678 5677 5676 5675 5673 5672 5671 5670 5668 5666 5664 5662 5660 5658 5656 5654 5651 5649 5646 5644 5642 5639 5637 5636 5634 5632 5631 5630 5628 5627 5626 5624